[[{"header":{"parameterUnit":"m.s-1","parameterCategory":1,"la1":30.2991,"la2":30.254,"lo1":-89.0895,"lo2":-89.0444,"dy":0.0017,"dx":0.0017,"nx":28,"ny":28,"refTime":"2025-08-05T21:00:00:Z","depth":0,"parameterNumber":2,"parameterNumberName":"U-component_of_WINDS"},"data":[0,0,0,0,0,0,0,0,0,0,0,0,0,0,0,0,0,0,0,0,0,0,0,0,0,0,0,0,0,0,0,0,0,0,0,0,0,0,0,0,0,0,0,0,0,0,0,0,0,0,0,0,0,0,0,0,0,0,-1.9343,-1.9345,0,-1.9469,-1.947,-1.9472,-1.9505,-1.9505,-1.9504,-1.9503,-1.9631,-1.9635,-1.9639,0,0,0,0,0,0,0,0,0,0,0,0,0,-1.9131,-1.9135,-1.9343,-1.9345,-1.9346,-1.9469,-1.9471,-1.9472,-1.9506,-1.9505,-1.9504,-1.9503,-1.963,-1.9635,-1.964,0,0,0,0,0,0,0,0,0,0,0,0,0,-1.9237,-1.9136,-1.9343,-1.9378,-1.9382,-1.9468,-1.9471,-1.9473,-1.9506,-1.9505,-1.9503,-1.9502,-1.9628,-1.9634,-1.964,-1.9701,0,0,-1.9659,-1.9662,0,0,0,0,0,0,0,0,-1.9231,-1.9244,-1.9371,-1.9375,-1.938,-1.947,-1.9443,-1.9549,-1.9506,-1.9459,-1.9503,-1.9502,-1.9579,-1.9589,-1.9615,-1.9707,-1.9712,-1.966,-1.9663,-1.9666,-1.9668,0,0,0,0,0,0,0,-1.9223,-1.9239,-1.9393,-1.9373,-1.9379,-1.9387,-1.9401,-1.9463,-1.9523,-1.9463,-1.9466,-1.948,-1.9581,-1.9609,-1.9618,-1.9714,-1.9659,-1.9665,-1.9669,-1.9671,-1.9862,-1.9863,0,0,0,0,0,0,-1.921,-1.9233,-1.9389,-1.9397,-1.9301,-1.9392,-1.9407,-1.9443,-1.9523,-1.9534,-1.9481,-1.9481,-1.9599,-1.9611,-1.9623,-1.9698,-1.9666,-1.9672,-1.9675,-1.986,-1.9862,-1.9863,0,0,0,0,0,0,-1.9205,-1.9224,-1.9384,-1.9316,-1.9337,-1.9396,-1.9436,-1.9446,-1.9474,-1.9536,-1.9547,-1.9498,-1.9598,-1.9614,-1.9681,-1.9703,-1.9675,-1.968,-1.9859,-1.9861,-1.9863,-1.9849,0,0,0,0,0,0,-1.9199,-1.9222,-1.9245,-1.9316,-1.934,-1.944,-1.9438,-1.9449,-1.9484,-1.9486,-1.9556,-1.9566,-1.9599,-1.9672,-1.9687,-1.9711,-1.9685,-1.9857,-1.986,-1.9862,-1.9848,-1.985,-1.9853,0,0,0,0,0,-1.9191,-1.9236,-1.9246,-1.9265,-1.9371,-1.9441,-1.9455,-1.9492,-1.9486,-1.951,-1.955,-1.9564,-1.9698,-1.9678,-1.9696,-1.9722,-1.9856,-1.9859,-1.9862,-1.9847,-1.985,-1.9853,0,0,0,0,0,0,-1.9166,-1.9246,-1.9258,-1.9327,-1.9377,-1.9447,-1.9478,-1.9494,-1.9547,-1.9546,-1.9589,-1.9605,-1.9669,-1.9702,-1.9679,-1.9784,-1.9777,-1.9784,-1.976,-1.9763,-1.9765,-1.9755,-1.969,0,0,0,0,0,-1.9169,-1.922,-1.9287,-1.9341,-1.9366,-1.9418,-1.945,-1.9474,-1.9527,-1.9549,-1.9594,-1.9645,-1.9699,-1.9733,-1.9786,-1.9854,-1.9869,-1.988,-1.9882,-1.9884,-1.9889,-1.9926,-1.9932,-1.9874,-1.9873,-1.9873,0,0,-1.9175,-1.9225,-1.9254,-1.9338,-1.9379,-1.943,-1.9435,-1.9489,-1.9527,-1.9557,-1.9622,-1.9658,-1.9718,-1.9785,-1.9817,-1.9815,-1.9909,-1.9888,-1.9889,-1.9893,-1.993,-1.9935,-1.994,-1.9876,-1.9875,-1.9875,0,0,-1.9211,-1.9254,-1.9304,-1.9346,-1.9409,-1.9443,-1.9455,-1.9523,-1.9547,-1.9614,-1.9637,-1.9683,-1.9775,-1.9817,-1.985,-1.9903,-1.9916,-1.9919,-1.993,-1.9966,-1.9971,-1.9975,-1.9993,-1.9998,-1.9924,-1.9924,-1.9924,0,-1.921,-1.9288,-1.9328,-1.9381,-1.9416,-1.9446,-1.9496,-1.9535,-1.9612,-1.9636,-1.9633,-1.9749,-1.9791,-1.9868,-1.9881,-1.9908,-1.9922,-1.991,-1.9967,-1.9972,-1.9976,-1.9993,-2.0,-1.9923,-1.9923,-1.9923,-1.9924,0,-1.9283,-1.9337,-1.9369,-1.9443,-1.9483,-1.9534,-1.9581,-1.9617,-1.9638,-1.9673,-1.974,-1.9793,-1.9856,-1.9877,-1.9898,-1.9957,-1.9954,-1.9959,-1.9952,-1.9981,-1.9998,-2.0005,-1.9923,-1.9923,-1.9923,-1.9923,0,0,-1.9305,-1.9401,-1.9412,-1.9445,-1.9517,-1.956,-1.9613,-1.9675,-1.9704,-1.9757,-1.9802,-1.9879,-1.9884,-1.9922,-1.9948,-1.998,-2.0017,-1.9981,-1.9983,-1.9984,-2.0084,-2.0078,-2.0085,-2.0028,-2.0029,-2.003,-2.0078,0,-1.9349,-1.9444,-1.9482,-1.9559,-1.9609,-1.9638,-1.9684,-1.9733,-1.9767,-1.9814,-1.9852,-1.9906,-1.9909,-1.9932,-1.9965,-2.0005,-2.0037,-2.0003,-2.0068,-2.007,-2.005,-2.0094,-2.0089,-2.0131,-2.0085,-2.0086,-2.0087,0,-1.9412,-1.9465,-1.9547,-1.9613,-1.9635,-1.9676,-1.9736,-1.9782,-1.9838,-1.986,-1.9903,-1.9927,-1.9983,-1.9975,-2.0052,-2.0028,-2.0058,-2.0082,-2.0084,-2.009,-2.0079,-2.0099,-2.0146,-2.0151,-2.0098,-2.0097,-2.0096,0,-1.9418,-1.951,-1.9571,-1.9599,-1.9678,-1.9706,-1.974,-1.9795,-1.983,-1.9883,-1.9907,-1.9966,-1.9997,-2.0042,-2.0082,-2.0072,-2.0156,-2.015,-2.0175,-2.0174,-2.0189,-2.0188,-2.0239,-2.0211,-2.0211,-2.0211,-2.0211,0,-1.9462,-1.951,-1.9574,-1.9612,-1.9667,-1.971,-1.9764,-1.98,-1.9849,-1.9894,-1.9924,-1.9965,-2.0016,-2.0063,-2.0095,-2.0154,-2.0169,-2.0188,-2.0195,-2.0184,-2.0181,-2.0202,-2.02,-2.0213,-2.0213,-2.0212,-2.0212,0,-1.9476,-1.9522,-1.959,-1.9659,-1.9678,-1.9715,-1.9775,-1.9812,-1.9848,-1.9904,-1.9919,-1.9976,-2.0033,-2.0078,-2.0153,-2.0175,-2.0236,-2.0245,-2.0217,-2.022,-2.0242,-2.0238,-2.0307,-2.0318,-2.0284,-2.0285,-2.0285,0,-1.95,-1.9539,-1.9612,-1.9644,-1.9678,-1.9729,-1.9766,-1.981,-1.9847,-1.9914,-1.9943,-2.0003,-2.0053,-2.0144,-2.0191,-2.0248,-2.0258,-2.0278,-2.0267,-2.0254,-2.0257,-2.0253,-2.0257,-2.0279,-2.0279,-2.0279,-2.0279,0,-1.9538,-1.9558,-1.9609,-1.9668,-1.9711,-1.976,-1.9809,-1.9833,-1.9887,-1.9926,-1.9986,-2.0024,-2.0101,-2.016,-2.0223,-2.0258,-2.0277,-2.0283,-2.0291,-2.0279,-2.0261,-2.027,-2.0219,-2.0281,-2.0281,-2.028,-2.028,-2.028,-1.9557,-1.9592,-1.9649,-1.9705,-1.9747,-1.9792,-1.983,-1.9871,-1.9922,-1.9988,-2.0011,-2.0072,-2.0128,-2.0214,-2.025,-2.0298,-2.0298,-2.0311,-2.0314,-2.0316,-2.0314,-2.0255,-2.031,-2.031,-2.031,-2.031,-2.031,0,-1.9594,-1.9633,-1.9684,-1.9752,-1.9796,-1.9811,-1.9867,-1.9902,-1.9955,-2.0006,-2.0055,-2.0123,-2.018,-2.0233,-2.0292,-2.0321,-2.0331,-2.0335,-2.0332,-2.034,-2.0311,-2.0297,-2.0325,-2.0325,-2.0325,-2.0325,-2.0325,-2.0325,-1.9619,-1.9678,-1.9706,-1.9787,-1.9825,-1.9885,-1.9915,-1.9957,-1.9998,-2.0072,-2.012,-2.0154,-2.0205,-2.0269,-2.0322,-2.0336,-2.0356,-2.0357,-2.0373,-2.0344,-2.0342,-2.034,-2.0327,-2.0362,-2.0362,-2.0398,-2.0399,-2.0399]},{"header":{"parameterUnit":"m.s-1","parameterCategory":1,"la1":30.2991,"la2":30.254,"lo1":-89.0895,"lo2":-89.0444,"dy":0.0017,"dx":0.0017,"nx":28,"ny":28,"refTime":"2025-08-05T21:00:00:Z","depth":0,"parameterNumber":3,"parameterNumberName":"V-component_of_WINDS"},"data":[0,0,0,0,0,0,0,0,0,0,0,0,0,0,0,0,0,0,0,0,0,0,0,0,0,0,0,0,0,0,0,0,0,0,0,0,0,0,0,0,0,0,0,0,0,0,0,0,0,0,0,0,0,0,0,0,0,0,1.274,1.2739,0,1.2723,1.2723,1.2723,1.2694,1.2694,1.2693,1.2693,1.2675,1.2676,1.2676,0,0,0,0,0,0,0,0,0,0,0,0,0,1.2747,1.2747,1.274,1.2739,1.2739,1.2723,1.2723,1.2723,1.2694,1.2694,1.2693,1.2692,1.2675,1.2676,1.2676,0,0,0,0,0,0,0,0,0,0,0,0,0,1.2738,1.2747,1.274,1.2723,1.2721,1.2723,1.2723,1.2722,1.2694,1.2694,1.2693,1.2692,1.2675,1.2676,1.2676,1.2692,0,0,1.2676,1.2676,0,0,0,0,0,0,0,0,1.2739,1.2738,1.2726,1.2724,1.2722,1.271,1.2719,1.2712,1.2695,1.2705,1.2693,1.2692,1.2688,1.2687,1.2685,1.2691,1.269,1.2676,1.2676,1.2676,1.2676,0,0,0,0,0,0,0,1.2739,1.2739,1.2733,1.2726,1.2724,1.2716,1.2714,1.2718,1.2701,1.2704,1.2702,1.27,1.2686,1.2685,1.2685,1.269,1.2676,1.2676,1.2676,1.2676,1.2708,1.2709,0,0,0,0,0,0,1.2742,1.2739,1.2734,1.2733,1.2729,1.2717,1.2715,1.2715,1.2701,1.2698,1.2701,1.2699,1.2685,1.2685,1.2684,1.2701,1.2676,1.2676,1.2676,1.2707,1.2708,1.2709,0,0,0,0,0,0,1.2743,1.2742,1.2734,1.2735,1.2734,1.2718,1.2718,1.2715,1.2713,1.2698,1.2695,1.2702,1.2685,1.2684,1.269,1.27,1.2676,1.2676,1.2706,1.2707,1.2708,1.2737,0,0,0,0,0,0,1.2743,1.2742,1.2749,1.2736,1.2734,1.2741,1.2719,1.2715,1.2714,1.2711,1.2699,1.2697,1.2684,1.269,1.269,1.27,1.2676,1.2705,1.2707,1.2708,1.2735,1.2739,1.2742,0,0,0,0,0,1.2743,1.2757,1.2749,1.2749,1.2741,1.2741,1.274,1.2726,1.2715,1.272,1.2711,1.2697,1.2699,1.2691,1.2691,1.2701,1.2704,1.2706,1.2708,1.2733,1.2738,1.2742,0,0,0,0,0,0,1.2772,1.2756,1.2746,1.2756,1.2751,1.2737,1.2744,1.2732,1.2729,1.2726,1.2708,1.2706,1.2714,1.2708,1.2699,1.2716,1.27,1.2701,1.2719,1.2724,1.2727,1.2728,1.2676,0,0,0,0,0,1.278,1.2782,1.2767,1.2777,1.2775,1.276,1.276,1.2749,1.2742,1.2739,1.273,1.2724,1.2723,1.2723,1.2722,1.2734,1.2731,1.2741,1.2745,1.2748,1.275,1.2755,1.2759,1.2715,1.2715,1.2715,0,0,1.2795,1.2787,1.2789,1.2783,1.2777,1.2779,1.2758,1.2761,1.2762,1.274,1.2745,1.2738,1.273,1.2739,1.2743,1.2734,1.2761,1.275,1.2753,1.2753,1.2757,1.2761,1.2765,1.2716,1.2716,1.2716,0,0,1.2825,1.2819,1.2826,1.2821,1.2812,1.2802,1.2804,1.2792,1.2786,1.2791,1.2774,1.2775,1.2775,1.2769,1.2767,1.2794,1.278,1.2794,1.2813,1.2818,1.2822,1.2825,1.2833,1.2837,1.2795,1.2796,1.2796,0,1.2845,1.2848,1.2832,1.2836,1.2834,1.2813,1.2821,1.2816,1.2808,1.2807,1.2797,1.2796,1.2789,1.2796,1.2803,1.2801,1.2802,1.2795,1.2822,1.2825,1.2828,1.2836,1.2839,1.2797,1.2797,1.2797,1.2797,0,1.2873,1.2875,1.2882,1.2874,1.2873,1.2879,1.2863,1.2864,1.2853,1.2844,1.2849,1.284,1.2836,1.2837,1.2827,1.2842,1.2837,1.2826,1.2809,1.2834,1.2841,1.2844,1.2799,1.2799,1.2798,1.2798,0,0,1.292,1.2903,1.2906,1.2902,1.289,1.2891,1.2896,1.2892,1.2893,1.2887,1.289,1.289,1.2879,1.2876,1.2865,1.287,1.289,1.2857,1.2856,1.2863,1.2906,1.2915,1.2919,1.2882,1.2882,1.2883,1.2907,0,1.2946,1.2953,1.2939,1.2949,1.295,1.2931,1.2935,1.2929,1.292,1.292,1.291,1.291,1.2895,1.2893,1.2897,1.2887,1.2899,1.2885,1.2884,1.2884,1.2886,1.2922,1.2932,1.2954,1.2909,1.291,1.291,0,1.2978,1.2974,1.2985,1.2972,1.2972,1.2976,1.2971,1.2971,1.2963,1.2956,1.2953,1.294,1.2943,1.2927,1.2931,1.2922,1.2921,1.2916,1.2916,1.2915,1.2898,1.2921,1.2961,1.2965,1.2915,1.2914,1.2914,0,1.301,1.3008,1.3013,1.3011,1.2997,1.3,1.2994,1.2985,1.2983,1.2979,1.2977,1.2974,1.2971,1.2968,1.2954,1.2945,1.296,1.2943,1.2953,1.2954,1.2957,1.2957,1.2997,1.2958,1.2958,1.2957,1.2957,0,1.3041,1.3048,1.3028,1.3031,1.3038,1.3022,1.3029,1.3021,1.3013,1.3015,1.2998,1.2999,1.2981,1.2981,1.297,1.2974,1.2973,1.2968,1.2964,1.2969,1.2969,1.2967,1.2965,1.2958,1.2958,1.2958,1.2958,0,1.3078,1.3065,1.3069,1.3056,1.3052,1.3058,1.3046,1.3048,1.3039,1.3041,1.304,1.3025,1.3023,1.3009,1.3004,1.2997,1.3005,1.2999,1.3008,1.3005,1.3016,1.3015,1.3055,1.3059,1.3018,1.3019,1.3019,0,1.3098,1.3103,1.309,1.3089,1.3084,1.3084,1.3082,1.3066,1.3065,1.3056,1.3059,1.3056,1.3052,1.3051,1.3039,1.3035,1.3028,1.3043,1.3028,1.3031,1.3027,1.3027,1.3027,1.3046,1.3046,1.3047,1.3047,0,1.3135,1.3128,1.3126,1.3121,1.312,1.3115,1.311,1.3111,1.3093,1.3092,1.309,1.3087,1.3082,1.3079,1.3073,1.3067,1.3054,1.3052,1.3054,1.3058,1.3062,1.3059,1.3015,1.3051,1.305,1.305,1.305,1.305,1.3163,1.3167,1.3157,1.3156,1.315,1.3145,1.3146,1.3137,1.3135,1.3129,1.312,1.3119,1.311,1.3101,1.3095,1.3094,1.3087,1.309,1.309,1.3091,1.3093,1.3063,1.3093,1.3093,1.3093,1.3093,1.3093,0,1.3199,1.3192,1.319,1.3183,1.3181,1.317,1.3163,1.3162,1.3162,1.3155,1.3151,1.3149,1.3145,1.3133,1.3129,1.313,1.3124,1.3129,1.3129,1.3127,1.3101,1.3099,1.3134,1.3134,1.3134,1.3134,1.3134,1.3134,1.3217,1.3221,1.3213,1.3214,1.3207,1.3206,1.3203,1.3198,1.3193,1.319,1.3188,1.318,1.317,1.3165,1.3161,1.3157,1.3156,1.3163,1.3158,1.3133,1.3129,1.3125,1.3124,1.3163,1.3163,1.3184,1.3184,1.3184]}]]